Starlink 4411

operational
NORAD ID: 53202 Int'l Des: 2022-084 Owner: SPXS Country: US Constellation: starlink
LEOCIRCULARRETROGRADESSO

Über Starlink 4411

Beschreibung wird geladen...

Live-Position

3D-Globus wird geladen...

Nächste Überflüge

Höhenverlauf

Altitude vs Time

uPlot chart will show altitude changes over time

Zweizeiliger Elementsatz

1 53202U 22084P 25299.40281861 .00000428 00000-0 33860-4 0 9993
2 53202 97.6027 358.8707 0001198 85.3338 274.8025 15.05652479179179
Epoch: 26. Okt. 2025 • Age: 8 hours

Aktueller Status

Höhe 551.7 km
Geschwindigkeit 7.59 km/s
Subsatellitenpunkt 19.00°N, 55.32°E
Startdatum 22. Juli 2022
Alter 3.2 years
Typ internet

Technische Details

Klassifizierung Payload
Masse 297.00 kg
Trockenmasse 275.00 kg
Gesamtmasse 297.00 kg
Länge 0.20 m
Durchmesser 2.80 m
Spannweite 9.00 m
Form Box + pan
Hersteller SPXS
Bus-Typ Starlink
Phasenstatus In Orbit
Besitzer/Staat SPXS/US

Große Konstellationen

Loading constellations...